Voltar ao catálogo

DELTA 1 DEB

AtivoSSO
NORAD 37652·DEBRIS·🇺🇸 United States

Lançado Mar 5, 1978 de Vandenberg Space Force Base

Loading…

Próximas Passagens (próximas 24 horas)

TLE

EnvelhecendoSource: Space-Track

Época: Sep 8, 2026, 02:44 UTC

1 37652U 78026JP  26251.11399510  .00000526  00000-0  25977-3 0  9997
2 37652  98.8402 210.3919 0025042 188.9590 171.1144 14.21551228153845

Acompanhe DELTA 1 DEB em tempo real com AllMySat

Download on the App Store